Time,TemperatureF,DewpointF,PressureIn,WindDirection,WindDirectionDegrees,WindSpeedMPH,WindSpeedGustMPH,Humidity,HourlyPrecipIn,Conditions,Clouds,dailyrainin,SolarRadiationWatts/m^2,SoftwareType,DateUTC
2013-04-07 00:22:00,34.0,34.0,-100.00,East,95,2.0,4.0,98,0.03,,,0.31,0.000000,,2013-04-07 06:22:00,
2013-04-07 00:32:00,34.0,34.0,-100.00,East,95,2.0,4.0,98,0.03,,,0.31,0.000000,,2013-04-07 06:32:00,
2013-04-07 00:42:00,34.0,34.0,-100.00,East,95,2.0,4.0,98,0.03,,,0.31,0.000000,,2013-04-07 06:42:00,
2013-04-07 00:52:00,34.0,34.0,-100.00,East,95,2.0,4.0,98,0.03,,,0.31,0.000000,,2013-04-07 06:52:00,
2013-04-07 01:22:00,32.0,32.0,-100.00,ESE,108,0.0,7.0,98,0.01,,,0.32,0.000000,,2013-04-07 07:22:00,
2013-04-07 01:32:00,32.0,32.0,-100.00,ESE,108,0.0,7.0,98,0.01,,,0.32,0.000000,,2013-04-07 07:32:00,
2013-04-07 01:42:00,32.0,32.0,-100.00,ESE,108,0.0,7.0,98,0.01,,,0.32,0.000000,,2013-04-07 07:42:00,
2013-04-07 01:52:00,32.0,32.0,-100.00,ESE,108,0.0,7.0,98,0.01,,,0.32,0.000000,,2013-04-07 07:52:00,
2013-04-07 05:22:00,32.0,32.0,-100.00,ESE,103,0.0,0.0,98,-99.99,,,0.22,0.000000,,2013-04-07 11:22:00,
2013-04-07 05:32:00,32.0,32.0,-100.00,ESE,103,0.0,0.0,98,-99.99,,,0.22,0.000000,,2013-04-07 11:32:00,
2013-04-07 05:42:00,32.0,32.0,-100.00,ESE,103,0.0,0.0,98,-99.99,,,0.22,0.000000,,2013-04-07 11:42:00,
2013-04-07 05:52:00,32.0,32.0,-100.00,ESE,103,0.0,0.0,98,-99.99,,,0.22,0.000000,,2013-04-07 11:52:00,
2013-04-07 06:22:00,32.0,32.0,-100.00,East,92,0.0,0.0,99,0.00,,,0.21,0.000000,,2013-04-07 12:22:00,
2013-04-07 06:42:00,32.0,32.0,-100.00,East,92,0.0,0.0,99,0.00,,,0.21,0.000000,,2013-04-07 12:42:00,
2013-04-07 06:52:00,32.0,32.0,-100.00,East,92,0.0,0.0,99,0.00,,,0.21,0.000000,,2013-04-07 12:52:00,
2013-04-07 07:22:00,32.0,32.0,-100.00,ESE,108,0.0,0.0,99,0.00,,,0.21,0.000000,,2013-04-07 13:22:00,
2013-04-07 07:32:00,32.0,32.0,-100.00,ESE,108,0.0,0.0,99,0.00,,,0.21,0.000000,,2013-04-07 13:32:00,
2013-04-07 07:42:00,32.0,32.0,-100.00,ESE,108,0.0,0.0,99,0.00,,,0.21,0.000000,,2013-04-07 13:42:00,
2013-04-07 07:52:00,32.0,32.0,-100.00,ESE,108,0.0,0.0,99,0.00,,,0.21,0.000000,,2013-04-07 13:52:00,
2013-04-07 08:32:00,32.0,32.0,-100.00,ESE,104,0.0,0.0,99,0.00,,,0.21,0.000000,,2013-04-07 14:32:00,
2013-04-07 08:43:00,32.0,32.0,-100.00,ESE,104,0.0,0.0,99,0.00,,,0.21,0.000000,,2013-04-07 14:43:00,
2013-04-07 08:53:00,32.0,32.0,-100.00,ESE,104,0.0,0.0,99,0.00,,,0.21,0.000000,,2013-04-07 14:53:00,
2013-04-07 09:22:00,32.0,32.0,-100.00,ESE,108,0.0,0.0,98,0.00,,,0.21,2.000000,,2013-04-07 15:22:00,
2013-04-07 09:33:00,32.0,32.0,-100.00,ESE,108,0.0,0.0,98,0.00,,,0.21,2.000000,,2013-04-07 15:33:00,
2013-04-07 09:43:00,32.0,32.0,-100.00,ESE,108,0.0,0.0,98,0.00,,,0.21,2.000000,,2013-04-07 15:43:00,
2013-04-07 09:53:00,32.0,32.0,-100.00,ESE,108,0.0,0.0,98,0.00,,,0.21,2.000000,,2013-04-07 15:53:00,
2013-04-07 10:23:00,33.0,32.0,-100.00,East,93,0.0,4.0,98,0.00,,,0.21,6.000000,,2013-04-07 16:23:00,
2013-04-07 10:33:00,33.0,32.0,-100.00,East,93,0.0,4.0,98,0.00,,,0.21,6.000000,,2013-04-07 16:33:00,
2013-04-07 10:42:00,33.0,32.0,-100.00,East,93,0.0,4.0,98,0.00,,,0.21,6.000000,,2013-04-07 16:42:00,
2013-04-07 10:52:00,33.0,32.0,-100.00,East,93,0.0,4.0,98,0.00,,,0.21,6.000000,,2013-04-07 16:52:00,
2013-04-07 11:22:00,36.0,35.0,-100.00,East,95,1.0,11.0,95,0.00,,,0.21,14.000000,,2013-04-07 17:22:00,
2013-04-07 11:32:00,36.0,35.0,-100.00,East,95,1.0,11.0,95,0.00,,,0.21,14.000000,,2013-04-07 17:32:00,
2013-04-07 11:42:00,36.0,35.0,-100.00,East,95,1.0,11.0,95,0.00,,,0.21,14.000000,,2013-04-07 17:42:00,
2013-04-07 11:52:00,36.0,35.0,-100.00,East,95,1.0,11.0,95,0.00,,,0.21,14.000000,,2013-04-07 17:52:00,
2013-04-07 12:22:00,34.0,32.0,-100.00,SW,217,3.0,13.0,93,0.02,,,0.23,13.000000,,2013-04-07 18:22:00,
2013-04-07 12:32:00,34.0,32.0,-100.00,SW,217,3.0,13.0,93,0.02,,,0.23,13.000000,,2013-04-07 18:32:00,
2013-04-07 12:42:00,34.0,32.0,-100.00,SW,217,3.0,13.0,93,0.02,,,0.23,13.000000,,2013-04-07 18:42:00,
2013-04-07 12:52:00,34.0,32.0,-100.00,SW,217,3.0,13.0,93,0.02,,,0.23,13.000000,,2013-04-07 18:52:00,
2013-04-07 13:22:00,40.0,36.0,-100.00,South,182,1.0,8.0,84,0.11,,,0.31,46.000000,,2013-04-07 19:22:00,
2013-04-07 13:32:00,40.0,36.0,-100.00,South,182,1.0,8.0,84,0.11,,,0.31,46.000000,,2013-04-07 19:32:00,
2013-04-07 13:42:00,40.0,36.0,-100.00,South,182,1.0,8.0,84,0.11,,,0.31,46.000000,,2013-04-07 19:42:00,
2013-04-07 13:52:00,40.0,36.0,-100.00,South,182,1.0,8.0,84,0.11,,,0.31,46.000000,,2013-04-07 19:52:00,
2013-04-07 14:22:00,41.0,36.0,-100.00,ESE,103,2.0,5.0,83,0.29,,,0.54,307.000000,,2013-04-07 20:22:00,
2013-04-07 14:32:00,41.0,36.0,-100.00,ESE,103,2.0,5.0,83,0.29,,,0.54,307.000000,,2013-04-07 20:32:00,
2013-04-07 15:22:00,43.0,36.0,-100.00,WSW,247,3.0,13.0,75,0.16,,,0.70,394.000000,,2013-04-07 21:22:00,
2013-04-07 15:33:00,43.0,36.0,-100.00,WSW,247,3.0,13.0,75,0.16,,,0.70,394.000000,,2013-04-07 21:33:00,
2013-04-07 15:43:00,43.0,36.0,-100.00,WSW,247,3.0,13.0,75,0.16,,,0.70,394.000000,,2013-04-07 21:43:00,
2013-04-07 15:53:00,43.0,36.0,-100.00,WSW,247,3.0,13.0,75,0.16,,,0.70,394.000000,,2013-04-07 21:53:00,
2013-04-07 16:23:00,41.0,35.0,-100.00,NE,34,0.0,8.0,80,0.18,,,0.88,405.000000,,2013-04-07 22:23:00,
2013-04-07 16:33:00,41.0,35.0,-100.00,NE,34,0.0,8.0,80,0.18,,,0.88,405.000000,,2013-04-07 22:33:00,
2013-04-07 16:43:00,41.0,35.0,-100.00,NE,34,0.0,8.0,80,0.18,,,0.88,405.000000,,2013-04-07 22:43:00,
2013-04-07 16:52:00,41.0,35.0,-100.00,NE,34,0.0,8.0,80,0.18,,,0.88,405.000000,,2013-04-07 22:52:00,
2013-04-07 17:22:00,37.0,33.0,-100.00,NW,312,2.0,10.0,84,0.06,,,0.91,147.000000,,2013-04-07 23:22:00,
2013-04-07 17:32:00,37.0,33.0,-100.00,NW,312,2.0,10.0,84,0.06,,,0.91,147.000000,,2013-04-07 23:32:00,
2013-04-07 17:42:00,37.0,33.0,-100.00,NW,312,2.0,10.0,84,0.06,,,0.91,147.000000,,2013-04-07 23:42:00,
2013-04-07 17:52:00,37.0,33.0,-100.00,NW,312,2.0,10.0,84,0.06,,,0.91,147.000000,,2013-04-07 23:52:00,
2013-04-07 18:22:00,41.0,32.0,-100.00,WNW,302,3.0,8.0,69,0.03,,,0.94,269.000000,,2013-04-08 00:22:00,
2013-04-07 18:32:00,41.0,32.0,-100.00,WNW,302,3.0,8.0,69,0.03,,,0.94,269.000000,,2013-04-08 00:32:00,
2013-04-07 18:42:00,41.0,32.0,-100.00,WNW,302,3.0,8.0,69,0.03,,,0.94,269.000000,,2013-04-08 00:42:00,
2013-04-07 18:52:00,41.0,32.0,-100.00,WNW,302,3.0,8.0,69,0.03,,,0.94,269.000000,,2013-04-08 00:52:00,
2013-04-07 19:22:00,36.0,30.0,-100.00,West,278,2.0,7.0,80,0.01,,,0.95,111.000000,,2013-04-08 01:22:00,
2013-04-07 19:33:00,36.0,30.0,-100.00,West,278,2.0,7.0,80,0.01,,,0.95,111.000000,,2013-04-08 01:33:00,
2013-04-07 19:43:00,36.0,30.0,-100.00,West,278,2.0,7.0,80,0.01,,,0.95,111.000000,,2013-04-08 01:43:00,
2013-04-07 19:53:00,36.0,30.0,-100.00,West,278,2.0,7.0,80,0.01,,,0.95,111.000000,,2013-04-08 01:53:00,
2013-04-07 20:22:00,32.0,31.0,-100.00,East,95,1.0,11.0,96,0.00,,,0.95,36.000000,,2013-04-08 02:22:00,
2013-04-07 20:33:00,32.0,31.0,-100.00,East,95,1.0,11.0,96,0.00,,,0.95,36.000000,,2013-04-08 02:33:00,
2013-04-07 20:45:00,32.0,31.0,-100.00,East,95,1.0,11.0,96,0.00,,,0.95,36.000000,,2013-04-08 02:45:00,
2013-04-07 20:52:00,32.0,31.0,-100.00,East,95,1.0,11.0,96,0.00,,,0.95,36.000000,,2013-04-08 02:52:00,
2013-04-07 21:23:00,31.0,30.0,-100.00,WNW,301,2.0,6.0,97,0.00,,,0.94,5.000000,,2013-04-08 03:23:00,
2013-04-07 21:33:00,31.0,30.0,-100.00,WNW,301,2.0,6.0,97,0.00,,,0.94,5.000000,,2013-04-08 03:33:00,
2013-04-07 21:46:00,31.0,30.0,-100.00,WNW,301,2.0,6.0,97,0.00,,,0.94,5.000000,,2013-04-08 03:46:00,
2013-04-07 21:53:00,31.0,30.0,-100.00,WNW,301,2.0,6.0,97,0.00,,,0.94,5.000000,,2013-04-08 03:53:00,
2013-04-07 22:23:00,31.0,30.0,-100.00,WSW,241,1.0,3.0,97,0.00,,,0.94,0.000000,,2013-04-08 04:23:00,
2013-04-07 22:33:00,31.0,30.0,-100.00,WSW,241,1.0,3.0,97,0.00,,,0.94,0.000000,,2013-04-08 04:33:00,
2013-04-07 22:43:00,31.0,30.0,-100.00,WSW,241,1.0,3.0,97,0.00,,,0.94,0.000000,,2013-04-08 04:43:00,
2013-04-07 22:52:00,31.0,30.0,-100.00,WSW,241,1.0,3.0,97,0.00,,,0.94,0.000000,,2013-04-08 04:52:00,
2013-04-07 23:32:00,30.0,28.0,-100.00,NW,305,1.0,5.0,93,0.00,,,0.90,0.000000,,2013-04-08 05:32:00,
2013-04-07 23:42:00,30.0,28.0,-100.00,NW,305,1.0,5.0,93,0.00,,,0.90,0.000000,,2013-04-08 05:42:00,
2013-04-07 23:51:00,30.0,28.0,-100.00,NW,305,1.0,5.0,93,0.00,,,0.90,0.000000,,2013-04-08 05:51:00,